Regional Weather Roundup
Issued by NWS Glasgow, MT

Home | Current Version | Previous Version | Text Only | Print | Product List | Glossary On
Versions: 1 2 3 4 5 6 7 8 9 10 11 12 13 14 15 16 17 18 19 20 21 22 23 24 25 26 27 28 29 30 31 32 33 34 35 36 37 38 39 40 41 42 43 44 45 46 47 48 49 50
000
ASUS45 KGGW 290215
RWRGGW
HOURLY REGIONAL WEATHER ROUNDUP FOR NORTHEAST MONTANA
NATIONAL WEATHER SERVICE GLASGOW MONTANA
800 PM MDT TUE JUL 28 2015

NOTE: "FAIR" INDICATES FEW OR NO CLOUDS BELOW 12,000 FEET WITH NO
SIGNIFICANT WEATHER AND/OR OBSTRUCTIONS TO VISISBILITY.

NORTHEAST MONTANA


CITY           SKY/WX    TMP DP  RH WIND       PRES   REMARKS
GLASGOW        MOCLDY    65  49  56 NW12      29.95R
PLENTYWOOD       N/A     57  51  80 NW37G59     N/A
WOLF POINT     CLOUDY    69  46  43 W20G26    29.93R
JORDAN           N/A     71  42  35 W17G23    30.02R
WINNETT          N/A     70  38  31 W18G28      N/A
SIDNEY         CLOUDY    57  50  77 W13       29.91R
GLENDIVE       CLOUDY    68  45  42 W20G26    29.98R
MALTA            N/A     72  46  39 W12G22      N/A
SCOBEY           N/A     55  49  80 NW14G20   29.90R HAZE

FORT PECK REPORTS


CITY           SKY/WX    TMP DP  RH WIND       PRES   REMARKS
FORT PECK        N/A     67  49  52 W24G35      N/A
THE PINES        N/A     69  46  43 NW8G20      N/A

SOUTHEAST MONTANA


CITY           SKY/WX    TMP DP  RH WIND       PRES   REMARKS
BILLINGS       PTCLDY    71  35  26 W20       30.16R
MILES CITY     PTCLDY    71  38  29 NW21G26   30.05R
BAKER          PTCLDY    68  39  34 W23G36    30.03R
LIVINGSTON     CLEAR     67  35  30 W15       30.23R

CENTRAL MONTANA


CITY           SKY/WX    TMP DP  RH WIND       PRES   REMARKS
HAVRE          PTCLDY    69  48  47 W8        30.02R
LEWISTOWN      PTCLDY    68  37  32 W12G20    30.15R
GREAT FALLS    CLEAR     71  32  23 W16G23    30.13R
CUT BANK       SUNNY     68  36  30 W22G30    30.13R
HELENA         CLEAR     72  31  22 W20       30.18S
BUTTE          CLEAR     62  33  33 W7        30.29R
BOZEMAN        MOCLDY    68  33  27 W10       30.24R

WESTERN MONTANA


CITY           SKY/WX    TMP DP  RH WIND       PRES   REMARKS
MISSOULA       CLOUDY    72  38  29 W13       30.21R
KALISPELL      NOT AVBL

NORTH DAKOTA


CITY           SKY/WX    TMP DP  RH WIND       PRES   REMARKS
WILLISTON      LGT RAIN  57  50  77 W29G41    29.85R
DICKINSON      PTCLDY    63  46  54 NW18G26   29.91R
MINOT          LGT RAIN  58  54  86 W29G43    29.54R FOG
BISMARCK       CLEAR     66  46  48 W30G52    29.85R

SOUTHERN SASKATCHEWAN


CITY           SKY/WX    TMP DP  RH WIND       PRES   REMARKS
REGINA         LGT RAIN  55  54  94 NW30G39   29.73R
ESTEVAN        LGT RAIN  55  54  94 NW40G55   29.62R FOG
SWIFT CURRENT  CLOUDY    63  52  67 W7        29.91R




USA.gov is the U.S. government's official web portal to all federal, state and local government web resources and services.